170  
ASUS43 KBIS 032010  
RWRND  
 
NORTH DAKOTA REGIONAL WEATHER ROUNDUP  
NATIONAL WEATHER SERVICE BISMARCK ND  
300 PM CDT MON AUG 03 2020  
 
NOTE: "FAIR" INDICATES FEW OR NO CLOUDS BELOW 12,000 FEET WITH NO  
SIGNIFICANT WEATHER AND/OR S TO VISIBILITY
.  
 
 
NDZ001>003-009>011-017-032100-  
NORTHWEST NORTH DAKOTA  
 
CITY SKY/WX TMP DP RH WIND PRES REMARKS
 
WILLISTON FAIR 82 47 29 SE18G38 30.08F  
MINOT SUNNY 79 46 31 SE17G26 30.14F  
MINOT AFB SUNNY 76 49 37 SE10 30.13F  

 
 
NDZ018>021-031>035-040>046-032100-  
SOUTHWEST NORTH DAKOTA  
 
CITY SKY/WX TMP DP RH WIND PRES REMARKS
 
BISMARCK SUNNY 82 47 29 S14G24 30.15F  
DICKINSON MOSUNNY 79 49 34 SE23G31 30.10F  
GARRISON N/A 77 49 37 S14 30.14F  
HETTINGER ARPT MOSUNNY 78 49 35 SE17G28 30.11F  

 
 
NDZ004>008-012>016-024-026-027-054-032100-  
NORTHEAST NORTH DAKOTA  
 
CITY SKY/WX TMP DP RH WIND PRES REMARKS
 
GRAND FORKS MOSUNNY 74 47 38 NE3 30.19F  
GRND FRKS AFB SUNNY 76 51 41 E5 30.19F  
DEVILS LAKE SUNNY 75 48 38 S8 30.20F  

 
 
NDZ022-023-025-028>030-036>039-047>053-032100-  
SOUTHEAST NORTH DAKOTA  
 
CITY SKY/WX TMP DP RH WIND PRES REMARKS
 
FARGO SUNNY 75 50 41 E12G20 30.18F  
JAMESTOWN MOSUNNY 76 52 43 E10 30.18F  

 
 
 
 
CLICK HERE TO GO TO PREVIOUS BULLETINS.

The Nexlab ND Page Main Text Page

The Nexlab ND Page Main Text Page